Time,TemperatureF,DewpointF,PressureIn,WindDirection,WindDirectionDegrees,WindSpeedMPH,WindSpeedGustMPH,Humidity,HourlyPrecipIn,Conditions,Clouds,dailyrainin,SolarRadiationWatts/m^2,SoftwareType,DateUTC
2013-01-08 00:00:00,23.1,19.8,30.26,SSE,158,0.0,0.0,87,0.00,,---,0.00,0.00,VWS V14.01,2013-01-08 05:00:00,
2013-01-08 00:30:00,22.5,20.3,30.24,SSE,158,0.0,1.0,91,0.00,,---,0.00,0.00,VWS V14.01,2013-01-08 05:30:00,
2013-01-08 01:00:00,23.2,21.0,30.24,SSE,158,0.0,2.0,91,0.00,,---,0.00,0.00,VWS V14.01,2013-01-08 06:00:00,
2013-01-08 01:30:00,22.6,20.1,30.23,South,180,0.0,5.0,90,0.00,,---,0.00,0.00,VWS V14.01,2013-01-08 06:30:00,
2013-01-08 02:00:00,21.0,18.5,30.22,South,180,0.0,2.0,90,0.00,,---,0.00,0.00,VWS V14.01,2013-01-08 07:00:00,
2013-01-08 02:30:00,20.5,18.0,30.22,South,180,0.0,2.0,90,0.00,,---,0.00,0.00,VWS V14.01,2013-01-08 07:30:00,
2013-01-08 03:00:00,20.8,18.3,30.22,South,180,0.0,1.0,90,0.00,,---,0.00,0.00,VWS V14.01,2013-01-08 08:00:00,
2013-01-08 03:30:00,20.0,17.5,30.24,South,180,0.0,0.0,90,0.00,,---,0.00,0.00,VWS V14.01,2013-01-08 08:30:00,
2013-01-08 04:00:00,19.3,16.9,30.25,South,180,0.0,0.0,90,0.00,,---,0.00,0.00,VWS V14.01,2013-01-08 09:00:00,
2013-01-08 04:30:00,19.5,17.6,30.26,South,180,0.0,0.0,92,0.00,,---,0.00,0.00,VWS V14.01,2013-01-08 09:30:00,
2013-01-08 05:00:00,20.6,18.6,30.25,South,180,0.0,1.0,92,0.00,,---,0.00,0.00,VWS V14.01,2013-01-08 10:00:00,
2013-01-08 05:30:00,20.7,18.5,30.26,South,180,0.0,1.0,91,0.00,,---,0.00,0.00,VWS V14.01,2013-01-08 10:30:00,
2013-01-08 06:00:00,18.5,16.3,30.26,South,180,0.0,2.0,91,0.00,,---,0.00,0.00,VWS V14.01,2013-01-08 11:00:00,
2013-01-08 06:30:00,16.9,14.7,30.27,South,180,0.0,0.0,91,0.00,,---,0.00,0.00,VWS V14.01,2013-01-08 11:30:00,
2013-01-08 07:00:00,16.3,14.1,30.28,South,180,0.0,0.0,91,0.00,,---,0.00,0.00,VWS V14.01,2013-01-08 12:00:00,
2013-01-08 07:30:00,17.0,15.1,30.29,South,180,0.0,0.0,92,0.00,,---,0.00,0.00,VWS V14.01,2013-01-08 12:30:00,
2013-01-08 08:00:00,17.5,15.6,30.30,South,180,0.0,0.0,92,0.00,,---,0.00,4.00,VWS V14.01,2013-01-08 13:00:00,
2013-01-08 08:30:00,18.1,16.2,30.30,South,180,0.0,0.0,92,0.00,,---,0.00,28.00,VWS V14.01,2013-01-08 13:30:00,
2013-01-08 09:00:00,18.9,17.2,30.30,South,180,0.0,0.0,93,0.00,,---,0.00,48.00,VWS V14.01,2013-01-08 14:00:00,
2013-01-08 09:30:00,19.8,17.9,30.32,South,180,0.0,0.0,92,0.00,,---,0.00,79.00,VWS V14.01,2013-01-08 14:30:00,
2013-01-08 10:00:00,20.8,19.4,30.32,South,180,0.0,4.0,94,0.00,,---,0.00,124.00,VWS V14.01,2013-01-08 15:00:00,
2013-01-08 10:30:00,25.0,23.5,30.32,South,180,0.0,4.0,94,0.00,,---,0.00,259.00,VWS V14.01,2013-01-08 15:30:00,
2013-01-08 11:00:00,28.3,26.8,30.32,South,180,0.0,1.0,94,0.00,,---,0.00,264.00,VWS V14.01,2013-01-08 16:00:00,
2013-01-08 11:30:00,31.7,29.4,30.31,South,180,0.0,1.0,91,0.00,,---,0.00,369.00,VWS V14.01,2013-01-08 16:30:00,
2013-01-08 12:00:00,35.2,29.7,30.30,South,180,0.0,3.0,80,0.00,,---,0.00,471.00,VWS V14.01,2013-01-08 17:00:00,
2013-01-08 12:30:00,37.0,30.5,30.29,WSW,248,1.0,4.0,77,0.00,,---,0.00,408.00,VWS V14.01,2013-01-08 17:30:00,
2013-01-08 13:00:00,38.9,30.7,30.27,WSW,248,1.0,5.0,72,0.00,,---,0.00,441.00,VWS V14.01,2013-01-08 18:00:00,
2013-01-08 13:30:00,41.4,31.3,30.26,SW,225,1.0,6.0,67,0.00,,---,0.00,434.00,VWS V14.01,2013-01-08 18:30:00,
2013-01-08 14:00:00,42.9,32.3,30.26,SW,225,4.0,9.0,66,0.00,,---,0.00,346.00,VWS V14.01,2013-01-08 19:00:00,
2013-01-08 14:30:00,43.7,32.3,30.25,SW,225,3.0,8.0,64,0.00,,---,0.00,434.00,VWS V14.01,2013-01-08 19:30:00,
2013-01-08 15:00:00,44.7,33.3,30.25,WSW,248,3.0,6.0,64,0.00,,---,0.00,364.00,VWS V14.01,2013-01-08 20:00:00,
2013-01-08 15:30:00,44.9,33.9,30.26,SW,225,2.0,5.0,65,0.00,,---,0.00,263.00,VWS V14.01,2013-01-08 20:30:00,
2013-01-08 16:00:00,45.8,33.9,30.27,South,180,2.0,6.0,63,0.00,,---,0.00,236.00,VWS V14.01,2013-01-08 21:00:00,
2013-01-08 16:30:00,46.4,34.9,30.26,SW,225,1.0,8.0,64,0.00,,---,0.00,121.00,VWS V14.01,2013-01-08 21:30:00,
2013-01-08 17:00:00,46.4,34.9,30.26,SW,225,0.0,2.0,64,0.00,,---,0.00,56.00,VWS V14.01,2013-01-08 22:00:00,
2013-01-08 17:30:00,45.0,34.7,30.26,SW,225,0.0,1.0,67,0.00,,---,0.00,6.00,VWS V14.01,2013-01-08 22:30:00,
2013-01-08 18:00:00,41.7,33.7,30.27,SW,225,0.0,1.0,73,0.00,,---,0.00,0.00,VWS V14.01,2013-01-08 23:00:00,
2013-01-08 18:30:00,39.1,32.5,30.26,SW,225,0.0,3.0,77,0.00,,---,0.00,0.00,VWS V14.01,2013-01-08 23:30:00,
2013-01-08 19:00:00,37.4,31.5,30.27,SW,225,0.0,2.0,79,0.00,,---,0.00,0.00,VWS V14.01,2013-01-09 00:00:00,
2013-01-08 19:30:00,37.6,31.4,30.27,SW,225,0.0,2.0,78,0.00,,---,0.00,0.00,VWS V14.01,2013-01-09 00:30:00,
2013-01-08 20:00:00,38.0,31.1,30.27,SW,225,0.0,5.0,76,0.00,,---,0.00,0.00,VWS V14.01,2013-01-09 01:00:00,
2013-01-08 20:30:00,40.1,31.5,30.26,SSE,158,1.0,5.0,71,0.00,,---,0.00,0.00,VWS V14.01,2013-01-09 01:30:00,
2013-01-08 21:00:00,39.7,31.1,30.26,SSE,158,0.0,5.0,71,0.00,,---,0.00,0.00,VWS V14.01,2013-01-09 02:00:00,
2013-01-08 21:30:00,36.9,28.4,30.25,SSE,158,0.0,3.0,71,0.00,,---,0.00,0.00,VWS V14.01,2013-01-09 02:30:00,
2013-01-08 22:00:00,34.2,28.7,30.24,SSE,158,0.0,5.0,80,0.00,,---,0.00,0.00,VWS V14.01,2013-01-09 03:00:00,
2013-01-08 22:30:00,37.2,29.4,30.23,SE,135,1.0,5.0,73,0.00,,---,0.00,0.00,VWS V14.01,2013-01-09 03:30:00,
2013-01-08 23:00:00,39.6,30.3,30.23,SSE,158,2.0,7.0,69,0.00,,---,0.00,0.00,VWS V14.01,2013-01-09 04:00:00,
2013-01-08 23:30:00,39.9,30.2,30.22,SSE,158,1.0,6.0,68,0.00,,---,0.00,0.00,VWS V14.01,2013-01-09 04:30:00,